Home > Time Zones > World Clock > Weather > U.S.A. > Nome > Past weeks

Flag for U.S.A. Weather past 2 weeks in Nome, Alaska, U.S.A.

Now
8 °F

Passing clouds.


Feels Like: -2 °F
Forecast: -5 / 7 °F
Wind: 6 mph from Northeast

Location: Nome Airport

Current Time: Dec 21, 2014 at 11:59:19 AM

Latest Report: Dec 21, 2014 at 10:53 AM


Visibility: 10 mi

Pressure: 29.46 "Hg

Humidity: 63%

Dew point: -2 °F

Location of NomeLocation

Historic Weather in Nome — Graph

°F

Nome temperature yesterday

Maximum temperature yesterday: 13 °F (at 7:53 PM)
Minimum temperature yesterday: 4 °F (at 11:53 AM)
Average temperature yesterday: 9 °F

Past Weeks' High & Low Weather Summary

 TemperatureHumidityPressure
High30 °F (Dec 18, 7:53 PM)100% (Dec 17, 2:53 AM)29.76 "Hg (Dec 17, 2:53 AM)
Low-6 °F (Dec 11, 11:53 PM)47% (Dec 18, 7:53 PM)29.02 "Hg (Dec 16, 6:53 AM)
Average16 °F72%29.39 "Hg
* Reported Dec 6 10:53 AM — Dec 21 10:53 AM, Nome, Weather by CustomWeather, © 2014

Note: Actual official high and low records may vary slightly from our data, if they occured in-between our weather recording intervals... More about our weather records

Advertising

Nome weather history for previous 24 hours

 ConditionsComfort  
Time TempWeatherWind HumidityBarometerVisibility
10:53 AM
Dec 21
8 °FPassing clouds.6 mph63%29.46 "Hg10 mi
9:53 AM8 °FPassing clouds.12 mph63%29.44 "Hg10 mi
8:53 AM8 °FClear.12 mph66%29.43 "Hg10 mi
7:53 AM9 °FClear.12 mph64%29.41 "Hg10 mi
6:53 AM8 °FClear.3 mph63%29.39 "Hg10 mi
5:53 AM8 °FClear.6 mph63%29.39 "Hg10 mi
4:53 AM7 °FClear.14 mph66%29.39 "Hg10 mi
3:53 AM8 °FClear.13 mph66%29.37 "Hg10 mi
2:53 AM8 °FClear.16 mph69%29.37 "Hg10 mi
1:53 AM9 °FPassing clouds.13 mph66%29.35 "Hg10 mi
12:53 AM10 °FPassing clouds.18 mph67%29.34 "Hg10 mi
11:53 PM
Dec 20
9 °FPassing clouds.14 mph70%29.33 "Hg10 mi
10:53 PM8 °FClear.No wind72%29.33 "Hg10 mi
9:53 PM9 °FPassing clouds.10 mph70%29.30 "Hg10 mi
8:53 PM13 °FPassing clouds.6 mph64%29.30 "Hg10 mi
7:53 PM13 °FPassing clouds.10 mph67%29.29 "Hg10 mi
6:53 PM12 °FPassing clouds.12 mph67%29.29 "Hg10 mi
5:53 PM10 °FPassing clouds.10 mph69%29.31 "Hg10 mi
4:53 PM5 °FPassing clouds.5 mph87%29.30 "Hg10 mi
3:53 PM6 °FPartly sunny.7 mph83%29.30 "Hg10 mi
2:53 PM6 °FPartly sunny.7 mph83%29.29 "Hg10 mi
1:53 PM7 °FPartly sunny.7 mph79%29.29 "Hg10 mi
12:53 PM11 °FPartly sunny.No wind73%29.31 "Hg10 mi
11:53 AM4 °FPassing clouds.3 mph88%29.30 "Hg10 mi
Weather by CustomWeather, © 2014

See weather overviewHow to use our weather pages